When you browse on this site, cookies collect data to enhance your experience and personalize the content and advertising you see.
Visit our Privacy Policy to learn more. By continuing to use the site, you agree to this use of cookies and data.

Météo par heure à Billingham

Ce jour, 2 Juillet, Jeudi

Heure Température Précipitation Vent Pression Humidité
00:00 +11°C° 0 mm 3 m/s 754 mmHg 94%
01:00 +11°C° 0.2 mm 3 m/s 753 mmHg 94%
02:00 +11°C° 0.2 mm 3 m/s 753 mmHg 94%
03:00 +11°C° 0.2 mm 4 m/s 753 mmHg 94%
04:00 +10°C° 0.4 mm 3 m/s 754 mmHg 94%
05:00 +10°C° 0.4 mm 3 m/s 754 mmHg 94%
06:00 +10°C° 0 mm 3 m/s 754 mmHg 95%
07:00 +11°C° 0.4 mm 3 m/s 755 mmHg 94%
08:00 +11°C° 0.4 mm 3 m/s 755 mmHg 94%
09:00 +11°C° 0.4 mm 3 m/s 755 mmHg 94%
10:00 +12°C° 0.2 mm 2 m/s 756 mmHg 92%
11:00 +12°C° 0.2 mm 2 m/s 756 mmHg 90%
12:00 +13°C° 0.2 mm 2 m/s 756 mmHg 88%
13:00 +13°C° 0 mm 2 m/s 757 mmHg 85%
14:00 +14°C° 0 mm 2 m/s 757 mmHg 81%
15:00 +15°C° 0 mm 1 m/s 757 mmHg 78%
16:00 +15°C° 0 mm 2 m/s 757 mmHg 80%
17:00 +15°C° 0 mm 2 m/s 757 mmHg 81%
18:00 +14°C° 0 mm 2 m/s 757 mmHg 83%
19:00 +13°C° 0 mm 3 m/s 757 mmHg 86%
20:00 +12°C° 0 mm 3 m/s 757 mmHg 90%
21:00 +12°C° 0 mm 3 m/s 757 mmHg 93%
22:00 +11°C° 0 mm 3 m/s 757 mmHg 93%
23:00 +11°C° 0 mm 3 m/s 757 mmHg 93%

Demain, 3 Juillet, Vendredi

Heure Température Précipitation Vent Pression Humidité
00:00 +10°C° 0 mm 3 m/s 757 mmHg 93%
01:00 +10°C° 0 mm 3 m/s 757 mmHg 92%
02:00 +11°C° 0 mm 4 m/s 756 mmHg 92%
03:00 +11°C° 0 mm 4 m/s 756 mmHg 91%
04:00 +11°C° 0.2 mm 4 m/s 755 mmHg 91%
05:00 +11°C° 0.2 mm 4 m/s 755 mmHg 92%
06:00 +11°C° 0.2 mm 4 m/s 755 mmHg 92%
07:00 +12°C° 0.2 mm 5 m/s 755 mmHg 91%
08:00 +11°C° 0.2 mm 6 m/s 754 mmHg 90%
09:00 +11°C° 0.2 mm 6 m/s 754 mmHg 90%
10:00 +12°C° 0.1 mm 7 m/s 754 mmHg 90%
11:00 +12°C° 0.1 mm 7 m/s 753 mmHg 91%
12:00 +13°C° 0.1 mm 8 m/s 753 mmHg 92%
13:00 +15°C° 0.1 mm 8 m/s 753 mmHg 91%
14:00 +15°C° 0.1 mm 8 m/s 752 mmHg 90%
15:00 +16°C° 0.1 mm 8 m/s 752 mmHg 89%
16:00 +16°C° 0.1 mm 8 m/s 752 mmHg 90%
17:00 +16°C° 0.1 mm 7 m/s 752 mmHg 90%
18:00 +16°C° 0.1 mm 7 m/s 752 mmHg 91%
19:00 +15°C° 0.1 mm 6 m/s 753 mmHg 91%
20:00 +15°C° 0.1 mm 5 m/s 753 mmHg 92%
21:00 +15°C° 0.1 mm 4 m/s 753 mmHg 92%
22:00 +14°C° 0 mm 4 m/s 753 mmHg 92%
23:00 +14°C° 0 mm 3 m/s 753 mmHg 92%

Après-demain, 4 Juillet, Samedi

Heure Température Précipitation Vent Pression Humidité
00:00 +14°C° 0 mm 3 m/s 753 mmHg 92%
01:00 +14°C° 0.3 mm 3 m/s 753 mmHg 93%
02:00 +16°C° 0.3 mm 3 m/s 752 mmHg 95%
03:00 +15°C° 0.3 mm 4 m/s 752 mmHg 96%
04:00 +15°C° 0.3 mm 4 m/s 751 mmHg 95%
05:00 +15°C° 0.3 mm 5 m/s 751 mmHg 95%
06:00 +16°C° 0.3 mm 5 m/s 751 mmHg 94%
07:00 +16°C° 0.1 mm 6 m/s 751 mmHg 93%
08:00 +16°C° 0.1 mm 6 m/s 750 mmHg 93%
09:00 +17°C° 0.1 mm 6 m/s 750 mmHg 92%
10:00 +17°C° 0 mm 7 m/s 750 mmHg 90%
11:00 +17°C° 0 mm 7 m/s 750 mmHg 89%
12:00 +17°C° 0 mm 8 m/s 750 mmHg 87%
13:00 +17°C° 0 mm 8 m/s 750 mmHg 85%
14:00 +18°C° 0 mm 8 m/s 750 mmHg 83%
15:00 +18°C° 0 mm 8 m/s 750 mmHg 80%
16:00 +18°C° 0.1 mm 8 m/s 751 mmHg 80%
17:00 +17°C° 0.1 mm 7 m/s 751 mmHg 80%
18:00 +17°C° 0.1 mm 7 m/s 752 mmHg 79%
19:00 +16°C° 0 mm 6 m/s 752 mmHg 82%
20:00 +15°C° 0 mm 5 m/s 752 mmHg 85%
21:00 +13°C° 0 mm 5 m/s 753 mmHg 88%
22:00 +13°C° 0 mm 4 m/s 753 mmHg 89%
23:00 +12°C° 0 mm 4 m/s 753 mmHg 90%

5 Juillet, Dimanche

Heure Température Précipitation Vent Pression Humidité
00:00 +11°C° 0 mm 4 m/s 753 mmHg 91%
01:00 +11°C° 0 mm 4 m/s 752 mmHg 91%
02:00 +12°C° 0 mm 4 m/s 752 mmHg 90%
03:00 +12°C° 0 mm 4 m/s 751 mmHg 90%
04:00 +13°C° 0.4 mm 5 m/s 750 mmHg 92%
05:00 +13°C° 0.4 mm 5 m/s 749 mmHg 93%
06:00 +14°C° 0.4 mm 6 m/s 748 mmHg 95%
07:00 +15°C° 0.5 mm 7 m/s 748 mmHg 91%
08:00 +16°C° 0.5 mm 8 m/s 747 mmHg 88%
09:00 +17°C° 0.5 mm 10 m/s 747 mmHg 84%
10:00 +17°C° 0.2 mm 9 m/s 747 mmHg 78%
11:00 +18°C° 0.2 mm 9 m/s 748 mmHg 72%
12:00 +18°C° 0.2 mm 8 m/s 749 mmHg 66%
13:00 +17°C° 0.1 mm 8 m/s 749 mmHg 66%
14:00 +17°C° 0.1 mm 8 m/s 750 mmHg 66%
15:00 +16°C° 0.1 mm 8 m/s 750 mmHg 66%
16:00 +16°C° 0.1 mm 8 m/s 751 mmHg 68%
17:00 +15°C° 0.1 mm 7 m/s 751 mmHg 69%
18:00 +15°C° 0.1 mm 7 m/s 751 mmHg 70%
19:00 +14°C° 0.1 mm 6 m/s 751 mmHg 74%
20:00 +13°C° 0.1 mm 6 m/s 752 mmHg 78%
21:00 +10°C° 0.1 mm 6 m/s 752 mmHg 81%
22:00 +10°C° 0 mm 5 m/s 752 mmHg 82%
23:00 +10°C° 0 mm 5 m/s 752 mmHg 84%

6 Juillet, Lundi

Heure Température Précipitation Vent Pression Humidité
00:00 +9°C° 0 mm 5 m/s 752 mmHg 85%
01:00 +9°C° 0 mm 6 m/s 752 mmHg 86%
02:00 +9°C° 0 mm 6 m/s 752 mmHg 87%
03:00 +9°C° 0 mm 6 m/s 752 mmHg 88%
04:00 +9°C° 0 mm 7 m/s 753 mmHg 86%
05:00 +10°C° 0 mm 7 m/s 753 mmHg 84%
06:00 +10°C° 0 mm 8 m/s 754 mmHg 82%
07:00 +11°C° 0 mm 8 m/s 755 mmHg 79%
08:00 +12°C° 0 mm 7 m/s 756 mmHg 75%
09:00 +14°C° 0 mm 7 m/s 757 mmHg 72%
10:00 +14°C° 0.2 mm 6 m/s 758 mmHg 72%
11:00 +14°C° 0.2 mm 6 m/s 759 mmHg 73%
12:00 +15°C° 0.2 mm 5 m/s 760 mmHg 73%
13:00 +15°C° 0.3 mm 4 m/s 760 mmHg 73%
14:00 +16°C° 0.3 mm 3 m/s 761 mmHg 73%
15:00 +16°C° 0.3 mm 3 m/s 762 mmHg 74%
16:00 +16°C° 0.2 mm 2 m/s 762 mmHg 75%
17:00 +15°C° 0.2 mm 2 m/s 762 mmHg 76%
18:00 +15°C° 0.2 mm 2 m/s 763 mmHg 77%
19:00 +14°C° 0 mm 2 m/s 763 mmHg 80%
20:00 +12°C° 0 mm 3 m/s 764 mmHg 82%
21:00 +11°C° 0 mm 4 m/s 764 mmHg 84%
22:00 +10°C° 0 mm 4 m/s 764 mmHg 84%
23:00 +8°C° 0 mm 4 m/s 764 mmHg 85%

7 Juillet, Mardi

Heure Température Précipitation Vent Pression Humidité
00:00 +7°C° 0 mm 4 m/s 765 mmHg 86%
01:00 +7°C° 0 mm 4 m/s 765 mmHg 88%
02:00 +7°C° 0 mm 4 m/s 765 mmHg 89%
03:00 +7°C° 0 mm 4 m/s 765 mmHg 91%
04:00 +8°C° 0 mm 4 m/s 765 mmHg 89%
05:00 +8°C° 0 mm 4 m/s 765 mmHg 88%
06:00 +10°C° 0 mm 4 m/s 765 mmHg 86%
07:00 +12°C° 0 mm 4 m/s 765 mmHg 81%
08:00 +13°C° 0 mm 4 m/s 765 mmHg 76%
09:00 +14°C° 0 mm 4 m/s 765 mmHg 71%
10:00 +15°C° 0 mm 4 m/s 765 mmHg 70%
11:00 +15°C° 0 mm 4 m/s 765 mmHg 68%
12:00 +17°C° 0 mm 4 m/s 765 mmHg 66%
13:00 +17°C° 0 mm 4 m/s 765 mmHg 65%
14:00 +18°C° 0 mm 4 m/s 765 mmHg 64%
15:00 +18°C° 0 mm 4 m/s 765 mmHg 63%
16:00 +18°C° 0 mm 4 m/s 765 mmHg 66%
17:00 +17°C° 0 mm 4 m/s 765 mmHg 68%
18:00 +17°C° 0 mm 3 m/s 765 mmHg 71%
19:00 +14°C° 0 mm 3 m/s 765 mmHg 76%
20:00 +13°C° 0 mm 3 m/s 765 mmHg 81%
21:00 +12°C° 0 mm 2 m/s 765 mmHg 86%
22:00 +12°C° 0 mm 2 m/s 765 mmHg 85%
23:00 +12°C° 0 mm 2 m/s 765 mmHg 84%
Voir plus